YOMOGI

Last updated on Wed Feb 05 2025 00:02:08 GMT+0000 (Coordinated Universal Time)

1 62298U 98067XE 25034.98546083 .00145757 00000+0 14478-2 0 9998 2 62298 51.6307 243.9128 0013678 188.1533 171.9242 15.64658910 8823
UTC large
Height (km)
Speed (km/s)
/
Latitude / Longitude
Inclination (degrees)
Orbital Period (minutes)
Azimuth
Elevation
Range (km)
Doppler Factor

Next 0 passes for location: London (51.5072 / 0.1276)

Sorry there are no passes over London.